Time,TemperatureF,DewpointF,PressureIn,WindDirection,WindDirectionDegrees,WindSpeedMPH,WindSpeedGustMPH,Humidity,HourlyPrecipIn,Conditions,Clouds,dailyrainin,SolarRadiationWatts/m^2,SoftwareType,DateUTC
2013-01-30 00:01:00,20.0,17.0,-100.00,ESE,114,2.0,8.0,87,0.00,,,-99.99,0.000000,,2013-01-30 07:01:00,
2013-01-30 00:32:00,23.0,20.0,-100.00,West,271,6.0,16.0,88,0.00,,,0.00,0.000000,,2013-01-30 07:32:00,
2013-01-30 00:42:00,23.0,20.0,-100.00,West,271,6.0,16.0,88,0.00,,,0.00,0.000000,,2013-01-30 07:42:00,
2013-01-30 00:52:00,23.0,20.0,-100.00,West,271,6.0,16.0,88,0.00,,,0.00,0.000000,,2013-01-30 07:52:00,
2013-01-30 01:01:00,23.0,20.0,-100.00,West,271,6.0,16.0,88,0.00,,,0.00,0.000000,,2013-01-30 08:01:00,
2013-01-30 01:32:00,26.0,22.0,-100.00,South,171,6.0,20.0,84,0.00,,,0.00,0.000000,,2013-01-30 08:32:00,
2013-01-30 01:42:00,26.0,22.0,-100.00,South,171,6.0,20.0,84,0.00,,,0.00,0.000000,,2013-01-30 08:42:00,
2013-01-30 01:52:00,26.0,22.0,-100.00,South,171,6.0,20.0,84,0.00,,,0.00,0.000000,,2013-01-30 08:52:00,
2013-01-30 02:01:00,26.0,22.0,-100.00,South,171,6.0,20.0,84,0.00,,,0.00,0.000000,,2013-01-30 09:01:00,
2013-01-30 02:32:00,27.0,21.0,-100.00,West,267,9.0,22.0,78,0.00,,,0.00,0.000000,,2013-01-30 09:32:00,
2013-01-30 02:42:00,27.0,21.0,-100.00,West,267,9.0,22.0,78,0.00,,,0.00,0.000000,,2013-01-30 09:42:00,
2013-01-30 02:52:00,27.0,21.0,-100.00,West,267,9.0,22.0,78,0.00,,,0.00,0.000000,,2013-01-30 09:52:00,
2013-01-30 03:01:00,27.0,21.0,-100.00,West,267,9.0,22.0,78,0.00,,,0.00,0.000000,,2013-01-30 10:01:00,
2013-01-30 03:22:00,28.0,22.0,-100.00,West,277,7.0,21.0,77,0.00,,,0.00,0.000000,,2013-01-30 10:22:00,
2013-01-30 03:32:00,28.0,22.0,-100.00,West,277,7.0,21.0,77,0.00,,,0.00,0.000000,,2013-01-30 10:32:00,
2013-01-30 03:42:00,28.0,22.0,-100.00,West,277,7.0,21.0,77,0.00,,,0.00,0.000000,,2013-01-30 10:42:00,
2013-01-30 03:52:00,28.0,22.0,-100.00,West,277,7.0,21.0,77,0.00,,,0.00,0.000000,,2013-01-30 10:52:00,
2013-01-30 04:01:00,28.0,22.0,-100.00,West,277,7.0,21.0,77,0.00,,,0.00,0.000000,,2013-01-30 11:01:00,
2013-01-30 04:33:00,28.0,21.0,-100.00,WSW,246,6.0,15.0,74,0.00,,,0.00,0.000000,,2013-01-30 11:33:00,
2013-01-30 04:42:00,28.0,21.0,-100.00,WSW,246,6.0,15.0,74,0.00,,,0.00,0.000000,,2013-01-30 11:42:00,
2013-01-30 04:52:00,28.0,21.0,-100.00,WSW,246,6.0,15.0,74,0.00,,,0.00,0.000000,,2013-01-30 11:52:00,
2013-01-30 05:01:00,28.0,21.0,-100.00,WSW,246,6.0,15.0,74,0.00,,,0.00,0.000000,,2013-01-30 12:01:00,
2013-01-30 05:02:00,28.0,21.0,-100.00,WNW,297,7.0,25.0,75,0.00,,,0.00,0.000000,,2013-01-30 12:02:00,
2013-01-30 05:33:00,28.0,21.0,-100.00,WNW,297,7.0,25.0,75,0.00,,,0.00,0.000000,,2013-01-30 12:33:00,
2013-01-30 05:43:00,28.0,21.0,-100.00,WNW,297,7.0,25.0,75,0.00,,,0.00,0.000000,,2013-01-30 12:43:00,
2013-01-30 06:23:00,28.0,21.0,-100.00,West,274,7.0,19.0,75,0.00,,,0.00,0.000000,,2013-01-30 13:23:00,
2013-01-30 06:33:00,28.0,21.0,-100.00,West,274,7.0,19.0,75,0.00,,,0.00,0.000000,,2013-01-30 13:33:00,
2013-01-30 06:43:00,28.0,21.0,-100.00,West,274,7.0,19.0,75,0.00,,,0.00,0.000000,,2013-01-30 13:43:00,
2013-01-30 06:53:00,28.0,21.0,-100.00,West,274,7.0,19.0,75,0.00,,,0.00,0.000000,,2013-01-30 13:53:00,
2013-01-30 07:01:00,28.0,21.0,-100.00,West,274,7.0,19.0,75,0.00,,,0.00,0.000000,,2013-01-30 14:01:00,
2013-01-30 07:02:00,28.0,20.0,-100.00,WNW,283,3.0,20.0,73,0.00,,,0.00,0.000000,,2013-01-30 14:02:00,
2013-01-30 07:33:00,28.0,20.0,-100.00,WNW,283,3.0,20.0,73,0.00,,,0.00,0.000000,,2013-01-30 14:33:00,
2013-01-30 07:43:00,28.0,20.0,-100.00,WNW,283,3.0,20.0,73,0.00,,,0.00,0.000000,,2013-01-30 14:43:00,
2013-01-30 07:53:00,28.0,20.0,-100.00,WNW,283,3.0,20.0,73,0.00,,,0.00,0.000000,,2013-01-30 14:53:00,
2013-01-30 08:02:00,28.0,21.0,-100.00,WNW,285,3.0,15.0,76,0.00,,,0.00,0.000000,,2013-01-30 15:02:00,
2013-01-30 08:33:00,28.0,21.0,-100.00,WNW,285,3.0,15.0,76,0.00,,,0.00,0.000000,,2013-01-30 15:33:00,
2013-01-30 08:43:00,28.0,21.0,-100.00,WNW,285,3.0,15.0,76,0.00,,,0.00,0.000000,,2013-01-30 15:43:00,
2013-01-30 08:53:00,28.0,21.0,-100.00,WNW,285,3.0,15.0,76,0.00,,,0.00,0.000000,,2013-01-30 15:53:00,
2013-01-30 09:33:00,29.0,22.0,-100.00,SW,226,5.0,17.0,76,0.00,,,0.00,1.000000,,2013-01-30 16:33:00,
2013-01-30 09:42:00,29.0,22.0,-100.00,SW,226,5.0,17.0,76,0.00,,,0.00,1.000000,,2013-01-30 16:42:00,
2013-01-30 09:52:00,29.0,22.0,-100.00,SW,226,5.0,17.0,76,0.00,,,0.00,1.000000,,2013-01-30 16:52:00,
2013-01-30 10:01:00,29.0,22.0,-100.00,SW,226,5.0,17.0,76,0.00,,,0.00,1.000000,,2013-01-30 17:01:00,
2013-01-30 10:02:00,32.0,22.0,-100.00,NNW,330,6.0,20.0,67,0.00,,,0.00,9.000000,,2013-01-30 17:02:00,
2013-01-30 10:33:00,32.0,22.0,-100.00,NNW,330,6.0,20.0,67,0.00,,,0.00,9.000000,,2013-01-30 17:33:00,
2013-01-30 10:43:00,32.0,22.0,-100.00,NNW,330,6.0,20.0,67,0.00,,,0.00,9.000000,,2013-01-30 17:43:00,
2013-01-30 10:53:00,32.0,22.0,-100.00,NNW,330,6.0,20.0,67,0.00,,,0.00,9.000000,,2013-01-30 17:53:00,
2013-01-30 11:02:00,32.0,23.0,-100.00,NNE,22,5.0,16.0,70,0.00,,,0.00,19.000000,,2013-01-30 18:02:00,
2013-01-30 11:33:00,32.0,23.0,-100.00,NNE,22,5.0,16.0,70,0.00,,,0.00,19.000000,,2013-01-30 18:33:00,
2013-01-30 11:43:00,32.0,23.0,-100.00,NNE,22,5.0,16.0,70,0.00,,,0.00,19.000000,,2013-01-30 18:43:00,
2013-01-30 11:52:00,32.0,23.0,-100.00,NNE,22,5.0,16.0,70,0.00,,,0.00,19.000000,,2013-01-30 18:52:00,
2013-01-30 12:02:00,35.0,24.0,-100.00,North,358,5.0,12.0,65,0.00,,,0.00,25.000000,,2013-01-30 19:02:00,
2013-01-30 12:33:00,35.0,24.0,-100.00,North,358,5.0,12.0,65,0.00,,,0.00,25.000000,,2013-01-30 19:33:00,
2013-01-30 12:43:00,35.0,24.0,-100.00,North,358,5.0,12.0,65,0.00,,,0.00,25.000000,,2013-01-30 19:43:00,
2013-01-30 12:53:00,35.0,24.0,-100.00,North,358,5.0,12.0,65,0.00,,,0.00,25.000000,,2013-01-30 19:53:00,
2013-01-30 13:02:00,34.0,22.0,-100.00,NNE,15,6.0,26.0,62,0.00,,,0.00,36.000000,,2013-01-30 20:02:00,
2013-01-30 13:22:00,34.0,22.0,-100.00,NNE,15,6.0,26.0,62,0.00,,,0.00,36.000000,,2013-01-30 20:22:00,
2013-01-30 13:33:00,34.0,22.0,-100.00,NNE,15,6.0,26.0,62,0.00,,,0.00,36.000000,,2013-01-30 20:33:00,
2013-01-30 13:42:00,34.0,22.0,-100.00,NNE,15,6.0,26.0,62,0.00,,,0.00,36.000000,,2013-01-30 20:42:00,
2013-01-30 13:53:00,34.0,22.0,-100.00,NNE,15,6.0,26.0,62,0.00,,,0.00,36.000000,,2013-01-30 20:53:00,
2013-01-30 14:02:00,35.0,23.0,-100.00,NW,320,7.0,25.0,60,0.00,,,0.00,41.000000,,2013-01-30 21:02:00,
2013-01-30 14:23:00,35.0,23.0,-100.00,NW,320,7.0,25.0,60,0.00,,,0.00,41.000000,,2013-01-30 21:23:00,
2013-01-30 14:32:00,35.0,23.0,-100.00,NW,320,7.0,25.0,60,0.00,,,0.00,41.000000,,2013-01-30 21:32:00,
2013-01-30 14:43:00,35.0,23.0,-100.00,NW,320,7.0,25.0,60,0.00,,,0.00,41.000000,,2013-01-30 21:43:00,
2013-01-30 14:52:00,35.0,23.0,-100.00,NW,320,7.0,25.0,60,0.00,,,0.00,41.000000,,2013-01-30 21:52:00,
2013-01-30 15:22:00,33.0,23.0,-100.00,WNW,283,7.0,22.0,66,0.03,,,0.03,28.000000,,2013-01-30 22:22:00,
2013-01-30 15:33:00,33.0,23.0,-100.00,WNW,283,7.0,22.0,66,0.03,,,0.03,28.000000,,2013-01-30 22:33:00,
2013-01-30 15:42:00,33.0,23.0,-100.00,WNW,283,7.0,22.0,66,0.03,,,0.03,28.000000,,2013-01-30 22:42:00,
2013-01-30 15:52:00,33.0,23.0,-100.00,WNW,283,7.0,22.0,66,0.03,,,0.03,28.000000,,2013-01-30 22:52:00,
2013-01-30 16:01:00,33.0,23.0,-100.00,WNW,283,7.0,22.0,66,0.03,,,0.03,28.000000,,2013-01-30 23:01:00,
2013-01-30 16:23:00,31.0,23.0,-100.00,NW,326,7.0,20.0,72,0.03,,,0.06,19.000000,,2013-01-30 23:23:00,
2013-01-30 16:33:00,31.0,23.0,-100.00,NW,326,7.0,20.0,72,0.03,,,0.06,19.000000,,2013-01-30 23:33:00,
2013-01-30 16:42:00,31.0,23.0,-100.00,NW,326,7.0,20.0,72,0.03,,,0.06,19.000000,,2013-01-30 23:42:00,
2013-01-30 16:52:00,31.0,23.0,-100.00,NW,326,7.0,20.0,72,0.03,,,0.06,19.000000,,2013-01-30 23:52:00,
2013-01-30 17:01:00,31.0,23.0,-100.00,NW,326,7.0,20.0,72,0.03,,,0.06,19.000000,,2013-01-31 00:01:00,
2013-01-30 17:32:00,30.0,23.0,-100.00,WNW,295,7.0,20.0,76,0.01,,,0.07,7.000000,,2013-01-31 00:32:00,
2013-01-30 17:42:00,30.0,23.0,-100.00,WNW,295,7.0,20.0,76,0.01,,,0.07,7.000000,,2013-01-31 00:42:00,
2013-01-30 17:53:00,30.0,23.0,-100.00,WNW,295,7.0,20.0,76,0.01,,,0.07,7.000000,,2013-01-31 00:53:00,
2013-01-30 18:01:00,30.0,23.0,-100.00,WNW,295,7.0,20.0,76,0.01,,,0.07,7.000000,,2013-01-31 01:01:00,
2013-01-30 18:32:00,31.0,23.0,-100.00,West,260,6.0,20.0,72,0.00,,,0.07,1.000000,,2013-01-31 01:32:00,
2013-01-30 18:42:00,31.0,23.0,-100.00,West,260,6.0,20.0,72,0.00,,,0.07,1.000000,,2013-01-31 01:42:00,
2013-01-30 18:52:00,31.0,23.0,-100.00,West,260,6.0,20.0,72,0.00,,,0.07,1.000000,,2013-01-31 01:52:00,
2013-01-30 19:01:00,31.0,23.0,-100.00,West,260,6.0,20.0,72,0.00,,,0.07,1.000000,,2013-01-31 02:01:00,
2013-01-30 19:02:00,30.0,23.0,-100.00,NW,306,6.0,22.0,76,0.00,,,0.07,0.000000,,2013-01-31 02:02:00,
2013-01-30 19:22:00,30.0,23.0,-100.00,NW,306,6.0,22.0,76,0.00,,,0.07,0.000000,,2013-01-31 02:22:00,
2013-01-30 19:32:00,30.0,23.0,-100.00,NW,306,6.0,22.0,76,0.00,,,0.07,0.000000,,2013-01-31 02:32:00,
2013-01-30 19:42:00,30.0,23.0,-100.00,NW,306,6.0,22.0,76,0.00,,,0.07,0.000000,,2013-01-31 02:42:00,
2013-01-30 19:52:00,30.0,23.0,-100.00,NW,306,6.0,22.0,76,0.00,,,0.07,0.000000,,2013-01-31 02:52:00,
2013-01-30 20:02:00,31.0,23.0,-100.00,NNW,348,5.0,16.0,71,0.00,,,0.07,0.000000,,2013-01-31 03:02:00,
2013-01-30 20:32:00,31.0,23.0,-100.00,NNW,348,5.0,16.0,71,0.00,,,0.07,0.000000,,2013-01-31 03:32:00,
2013-01-30 20:42:00,31.0,23.0,-100.00,NNW,348,5.0,16.0,71,0.00,,,0.07,0.000000,,2013-01-31 03:42:00,
2013-01-30 20:52:00,31.0,23.0,-100.00,NNW,348,5.0,16.0,71,0.00,,,0.07,0.000000,,2013-01-31 03:52:00,
2013-01-30 21:02:00,32.0,22.0,-100.00,North,6,5.0,15.0,67,0.00,,,0.07,0.000000,,2013-01-31 04:02:00,
2013-01-30 21:32:00,32.0,22.0,-100.00,North,6,5.0,15.0,67,0.00,,,0.07,0.000000,,2013-01-31 04:32:00,
2013-01-30 21:42:00,32.0,22.0,-100.00,North,6,5.0,15.0,67,0.00,,,0.07,0.000000,,2013-01-31 04:42:00,
2013-01-30 21:52:00,32.0,22.0,-100.00,North,6,5.0,15.0,67,0.00,,,0.07,0.000000,,2013-01-31 04:52:00,
2013-01-30 22:42:00,31.0,22.0,-100.00,North,3,3.0,14.0,70,0.00,,,0.07,0.000000,,2013-01-31 05:42:00,
2013-01-30 22:52:00,31.0,22.0,-100.00,North,3,3.0,14.0,70,0.00,,,0.07,0.000000,,2013-01-31 05:52:00,
2013-01-30 23:01:00,31.0,22.0,-100.00,North,3,3.0,14.0,70,0.00,,,0.07,0.000000,,2013-01-31 06:01:00,